Weather in Murgab

Tajikistan     38°10′17″N   73°57′59″E
temp.,
°C
wind,
m/s
gust,
m/s
humid.,
%
clouds,
%
prec.,
mm/h
press.,
hPa
HPBL,
m
16 april, fri
fri1623:00−7wnw1186100 0.2 102057
02:00−8nw1190100 0.3 102077
05:00−8wnw1194100 0.9 102057
08:00−6ssw1188100 0.4 1020278
11:00−4s227888 0.6 1019657
14:00−2ssw1162100 0.1 1016867
17:00−2s1163100 0.1 1015441
20:00−6nw2174100 0.1 102028
17 april, sat
sat1723:00−7wnw2275100 0.1 102028
02:00−8nw1177100 0.0 102026
05:00−9wnw2281100 0.0 102147
08:00−7s1182100 0.0 1020210
11:00−5s2173100 0.1 1017461
14:00−2ssw1162100 0.1 1014708
17:00−2nw2268100 0.4 1014445
20:00−4ne1176100 0.4 101772
18 april, sun
sun1823:00−6w1184100 0.6 1019139
02:00−8wnw2277100 0.1 101985
05:00−9w227195 0.1 102093
08:00−7wsw2164100 0.0 1020245
11:00−4ssw2164100 0.0 1016668
14:00−3wsw114885 0.1 10131044
17:00−3wsw2257100 0.3 1013618
20:00−5wsw2179100 0.3 1018212
19 april, mon
mon1923:00−7nw3269100 0.5 1020196
02:00−8nw2268100 0.0 1019176
05:00−9nw2266100 0.0 102162
08:00−7wsw115829 0.0 1021326
11:00−4ssw235599 0.0 10181078
14:00−2sw34427 0.0 10151512
17:00−2sw33415 0.0 1014948
20:00−7w33555 0.0 1019197
20 april, tue
tue2023:00−9wsw225619 0.0 1021154
02:00−11wsw225870 0.0 1024169
05:00−12sw1261100 0.0 1027156
08:00−10ssw2255100 0.0 1025319
11:00−6s2243100 0.0 1019667
14:00−3sse133363 0.0 10141118
17:00−1ssw6103342 0.0 10111603
20:00−7w3453100 0.0 1017223